This demonstration page uses our WeatherBlox Daily Observations layout. Learn more.

Left ArrowRight Arrow

38.20091, -84.87328

Hourly Observations for August 14, 2021

Temp ( °F °C ) Dew Point ( °F °C ) Humidity (%) Winds ( mph kmh ) Pressure ( in mb ) Visibility ( mi km ) Precip ( " mm )
12:53 am 00:53 Clear 72 22.2 70 21.1 94 94 Calm 30.10 1019 10 16 0.00 0.00
1:53 am 01:53 Clear with Mist and Fog 70 21.1 69 20.6 97 97 Calm 30.11 1020 6 10 0.00 0.00
2:03 am 02:03 Clear with Mist and Fog 70 21.1 69 20.6 97 97 Calm 30.11 1020 2 3 0.00 0.00
2:08 am 02:08 Clear with Mist and Fog 70 21.1 69 20.6 97 97 Calm 30.11 1020 3 5 0.00 0.00
2:53 am 02:53 Clear with Mist and Fog 70 21.1 69 20.6 97 97 Calm 30.10 1019 5 8 0.00 0.00
3:09 am 03:09 Clear with Mist and Fog 70 21.1 69 20.6 97 97 Calm 30.11 1020 3 4 0.00 0.00
3:19 am 03:19 Clear with Mist and Fog 70 21.1 69 20.6 97 97 Calm 30.10 1019 6 10 0.00 0.00
3:53 am 03:53 Clear 70 21.1 69 20.6 97 97 S 3 6 30.10 1019 10 16 0.00 0.00
4:53 am 04:53 Clear 71 21.7 69 20.6 94 94 Calm 30.10 1019 10 16 0.00 0.00
5:53 am 05:53 Clear 71 21.7 70 21.1 96 96 Calm 30.11 1020 10 16 0.00 0.00
6:53 am 06:53 Clear 70 21.1 69 20.6 97 97 Calm 30.13 1020 7 11 0.00 0.00
7:04 am 07:04 Partly Cloudy with Mist and Fog 71 21.7 69 20.6 94 94 Calm 30.14 1021 6 10 0.00 0.00
7:13 am 07:13 Mostly Cloudy with Mist and Fog 70 21.1 69 20.6 97 97 Calm 30.14 1021 2 3 0.00 0.00
7:17 am 07:17 Mostly Cloudy with Mist and Fog 70 21.1 69 20.6 97 97 Calm 30.14 1021 1 2 0.00 0.00
7:25 am 07:25 Cloudy with Mist and Fog 70 21.1 69 20.6 97 97 Calm 30.14 1021 1 1 0.00 0.00
7:46 am 07:46 Cloudy with Fog 70 21.1 70 21.1 100 100 Calm 30.15 1021 0 0 0.00 0.00
7:53 am 07:53 Cloudy with Mist and Fog 71 21.7 70 21.1 96 96 Calm 30.15 1021 1 1 0.00 0.00
7:59 am 07:59 Cloudy with Mist and Fog 71 21.7 70 21.1 96 96 Calm 30.15 1021 1 2 0.00 0.00
8:09 am 08:09 Cloudy with Mist and Fog 71 21.7 70 21.1 96 96 N 3 6 30.16 1021 3 4 0.00 0.00
8:24 am 08:24 Cloudy with Mist and Fog 72 22.2 71 21.7 97 97 N 5 7 30.14 1021 2 2 0.00 0.00
8:32 am 08:32 Cloudy with Mist and Fog 72 22.2 71 21.7 97 97 N 6 9 30.15 1021 3 5 0.00 0.00
8:53 am 08:53 Cloudy with Mist and Fog 72 22.2 71 21.7 97 97 N 3 6 30.16 1021 3 5 0.00 0.00
9:53 am 09:53 Cloudy 74 23.3 71 21.7 91 91 NNE 6 9 30.16 1022 8 13 0.00 0.00
10:24 am 10:24 Cloudy 75 23.9 71 21.7 88 88 NE 5 7 30.16 1021 10 16 0.00 0.00
10:45 am 10:45 Cloudy 76 24.4 72 22.2 88 88 VRB 5 7 30.16 1021 10 16 0.00 0.00
10:53 am 10:53 Cloudy 77 25 72 22.2 85 85 NE 6 9 30.17 1022 10 16 0.00 0.00
11:27 am 11:27 Cloudy 79 26.1 72 22.2 79 79 ENE 6 9 30.16 1021 10 16 0.00 0.00
11:53 am 11:53 Cloudy 79 26.1 72 22.2 79 79 NNE 5 7 30.18 1022 10 16 0.00 0.00
12:30 pm 12:30 Cloudy 80 26.7 72 22.2 76 76 ENE 6 9 30.16 1021 10 16 0.00 0.00
12:53 pm 12:53 Partly Cloudy 81 27.2 72 22.2 74 74 E 3 6 30.17 1022 10 16 0.00 0.00
1:53 pm 13:53 Partly Cloudy 83 28.3 72 22.2 70 70 E 5 7 30.15 1021 10 16 0.00 0.00
2:04 pm 14:04 Mostly Cloudy 84 28.9 72 22.2 67 67 NE 5 7 30.13 1020 10 16 0.00 0.00
2:19 pm 14:19 Cloudy 84 28.9 72 22.2 67 67 E 3 6 30.13 1020 10 16 0.00 0.00
2:29 pm 14:29 Cloudy 83 28.3 72 22.2 70 70 ENE 6 9 30.12 1020 10 16 0.00 0.00
2:53 pm 14:53 Cloudy 83 28.3 73 22.8 72 72 ESE 5 7 30.13 1020 10 16 0.00 0.00
3:12 pm 15:12 Mostly Cloudy 83 28.3 72 22.2 70 70 E 7 11 30.10 1019 10 16 0.00 0.00
3:53 pm 15:53 Mostly Cloudy 82 27.8 72 22.2 72 72 N 8 13 30.11 1020 10 16 0.00 0.00
4:02 pm 16:02 Cloudy 82 27.8 72 22.2 72 72 N 7 11 30.10 1019 10 16 0.00 0.00
4:53 pm 16:53 Cloudy 80 26.7 72 22.2 76 76 NNE 6 9 30.11 1020 10 16 0.00 0.00
4:57 pm 16:57 Cloudy with Thunderstorms 80 26.7 71 21.7 74 74 NNE 6 9 30.10 1019 9 14 0.00 0.00
5:24 pm 17:24 Cloudy with Nearby Thunderstorms 76 24.4 73 22.8 91 91 ENE 7 11 30.11 1020 4 6 0.05 1.27
5:35 pm 17:35 Cloudy with Light Rain 75 23.9 73 22.8 94 94 ENE 7 11 30.11 1020 5 8 0.06 1.52
5:53 pm 17:53 Cloudy with Nearby Thunderstorms 75 23.9 73 22.8 94 94 ENE 5 7 30.12 1020 6 10 0.07 1.78
6:05 pm 18:05 Cloudy with Nearby Thunderstorms 75 23.9 73 22.8 94 94 ENE 5 7 30.11 1020 4 6 0.02 0.51
6:14 pm 18:14 Cloudy with Light Rain 75 23.9 73 22.8 94 94 Calm 30.11 1020 6 10 0.03 0.76
6:27 pm 18:27 Cloudy with Light Rain 75 23.9 73 22.8 94 94 E 3 6 30.11 1020 5 8 0.06 1.52
6:53 pm 18:53 Cloudy with Light Rain 76 24.4 73 22.8 91 91 ENE 3 6 30.12 1020 7 11 0.08 2.03
7:53 pm 19:53 Mostly Sunny 75 23.9 73 22.8 94 94 E 6 9 30.11 1020 9 14 0.00 0.00
8:53 pm 20:53 Mostly Cloudy 75 23.9 73 22.8 94 94 NE 5 7 30.13 1020 10 16 0.00 0.00
9:53 pm 21:53 Cloudy 75 23.9 73 22.8 94 94 Calm 30.14 1021 10 16 0.00 0.00
10:53 pm 22:53 Cloudy 74 23.3 68 20 82 82 NE 6 9 30.14 1021 10 16 0.00 0.00
11:53 pm 23:53 Cloudy 73 22.8 64 17.8 74 74 NNE 5 7 30.15 1021 10 16 0.00 0.00

Powered by AerisWeather